Weather History for Frankfort, MI

Change the Weather History Date:

Monday, August 19, 2013

  Actual Average (KTVC) Record (KTVC)
Temperature  
Mean Temperature 65 °F 67 °F  
Max Temperature 77 °F 78 °F 99 °F (1955)
Min Temperature 53 °F 57 °F 41 °F (1998)
Degree Days  
Heating Degree Days 0 1  
Month to date heating degree days 19  
Since 1 June heating degree days 159  
Since 1 July heating degree days 47  
Cooling Degree Days 0 3  
Month to date cooling degree days 81  
Year to date cooling degree days 334  
Since 1 June cooling degree days 314  
Growing Degree Days 15 (Base 50)    
Moisture  
Dew Point 58 °F    
Average Humidity 73    
Maximum Humidity 93    
Minimum Humidity 53    
Precipitation  
Precipitation 0.00 in 0.11 in 4.25 in (1994)
Month to date precipitation 2.07  
Year to date precipitation 19.80  
Sea Level Pressure  
Sea Level Pressure 30.06 in    
Wind  
Wind Speed 3 mph (SSW)    
Max Wind Speed 13 mph    
Max Gust Speed 18 mph    
Visibility 10 miles    
Events      
T = Trace of Precipitation, MM = Missing Value Source: NWS Daily Summary

Daily Weather History Graph

Daily Weather History Graph

Search for Another Location

Airport:

Trip Planner

Search our weather history database for the weather conditions in past years. The results will help you decide how hot, cold, wet, or windy it might be!

Date:

Astronomy

Aug. 19, 2013 Rise Set
Actual Time 6:52 AM EDT 8:43 PM EDT
Civil Twilight 6:21 AM EDT 9:14 PM EDT
Nautical Twilight 5:42 AM EDT 9:52 PM EDT
Astronomical Twilight 5:01 AM EDT 10:34 PM EDT
Moon 7:34 PM EDT 5:09 AM EDT
Length of Visible Light 14h 53m
Length of Day
13h 51m
Waxing Gibbous, 97% of the Moon is Illuminated
Aug 19
Waxing Gibbous
Aug 20
Full
Aug 28
Last Quarter
Sep 5
New
Sep 12
First Quarter

Hourly Weather History & Observations

Time (EDT) Temp. Dew Point Humidity Pressure Visibility Wind Dir Wind Speed Gust Speed Precip Events Conditions
12:14 AM 56.7 °F 53.2 °F 88% 30.10 in 10.0 mi Calm Calm - N/A   Clear
12:34 AM 56.3 °F 52.9 °F 88% 30.10 in 10.0 mi Calm Calm - N/A   Clear
12:54 AM 56.1 °F 52.0 °F 86% 30.10 in 10.0 mi Calm Calm - N/A   Clear
1:14 AM 55.8 °F 52.3 °F 88% 30.10 in 10.0 mi Calm Calm - N/A   Clear
1:35 AM 56.5 °F 53.2 °F 89% 30.10 in 10.0 mi Calm Calm - N/A   Clear
1:55 AM 54.7 °F 51.4 °F 89% 30.10 in 10.0 mi Calm Calm - N/A   Clear
2:15 AM 54.9 °F 51.6 °F 89% 30.09 in 10.0 mi Calm Calm - N/A   Clear
2:35 AM 56.1 °F 52.3 °F 87% 30.09 in 10.0 mi Calm Calm - N/A   Clear
2:55 AM 53.8 °F 50.7 °F 89% 30.09 in 10.0 mi Calm Calm - N/A   Clear
3:15 AM 55.4 °F 52.0 °F 88% 30.08 in 10.0 mi Calm Calm - N/A   Clear
3:35 AM 54.0 °F 51.1 °F 90% 30.09 in 10.0 mi Calm Calm - N/A   Clear
3:55 AM 54.7 °F 51.4 °F 89% 30.09 in 10.0 mi Calm Calm - N/A   Clear
4:15 AM 54.0 °F 50.9 °F 89% 30.08 in 10.0 mi Calm Calm - N/A   Clear
4:36 AM 54.7 °F 51.8 °F 90% 30.08 in 10.0 mi Calm Calm - N/A   Clear
4:56 AM 54.1 °F 51.4 °F 91% 30.08 in 7.0 mi Calm Calm - N/A   Clear
5:16 AM 53.6 °F 51.1 °F 91% 30.08 in 7.0 mi Calm Calm - N/A   Clear
5:36 AM 53.6 °F 51.1 °F 91% 30.07 in 10.0 mi Calm Calm - N/A   Clear
5:56 AM 54.3 °F 52.3 °F 93% 30.08 in 5.0 mi Calm Calm - N/A   Clear
6:16 AM 53.6 °F 51.3 °F 92% 30.08 in 5.0 mi Calm Calm - N/A   Clear
6:36 AM 54.1 °F 51.8 °F 92% 30.08 in 7.0 mi Calm Calm - N/A   Clear
6:51 AM 53.1 °F 50.2 °F 90% 30.08 in 10.0 mi Calm Calm - N/A   Clear
7:11 AM 53.8 °F 50.9 °F 90% 30.08 in 7.0 mi Calm Calm - N/A   Clear
7:31 AM 53.4 °F 50.5 °F 90% 30.09 in 7.0 mi Calm Calm - N/A   Clear
7:52 AM 55.4 °F 52.9 °F 91% 30.09 in 5.0 mi Calm Calm - N/A   Clear
8:12 AM 58.3 °F 55.6 °F 91% 30.09 in 7.0 mi Calm Calm - N/A   Clear
8:32 AM 62.2 °F 58.8 °F 89% 30.09 in 10.0 mi Calm Calm - N/A   Clear
8:52 AM 66.6 °F 61.9 °F 85% 30.09 in 10.0 mi Calm Calm - N/A   Clear
9:12 AM 68.7 °F 62.8 °F 81% 30.08 in 10.0 mi SSW 3.5 mph - N/A   Clear
9:32 AM 69.8 °F 63.0 °F 79% 30.08 in 10.0 mi Calm Calm - N/A   Clear
9:52 AM 70.3 °F 62.8 °F 77% 30.08 in 10.0 mi SW 6.9 mph - N/A   Clear
10:12 AM 70.5 °F 62.2 °F 75% 30.08 in 10.0 mi SSW 5.8 mph - N/A   Clear
10:32 AM 71.6 °F 62.2 °F 72% 30.08 in 10.0 mi SSW 9.2 mph - N/A   Clear
10:53 AM 72.3 °F 62.2 °F 70% 30.09 in 10.0 mi SW 8.1 mph - N/A   Clear
11:13 AM 72.7 °F 62.2 °F 70% 30.09 in 10.0 mi SSW 8.1 mph - N/A   Clear
11:33 AM 73.6 °F 63.0 °F 69% 30.10 in 10.0 mi WSW 9.2 mph - N/A   Clear
11:53 AM 73.4 °F 62.2 °F 68% 30.10 in 10.0 mi SW 11.5 mph - N/A   Clear
12:13 PM 74.1 °F 63.5 °F 69% 30.08 in 10.0 mi SSW 6.9 mph - N/A   Clear
12:33 PM 73.8 °F 63.1 °F 69% 30.08 in 10.0 mi SSW 9.2 mph - N/A   Clear
12:53 PM 74.7 °F 61.3 °F 63% 30.07 in 10.0 mi WSW 8.1 mph - N/A   Clear
1:13 PM 77.2 °F 62.4 °F 60% 30.06 in 10.0 mi South 8.1 mph - N/A   Clear
1:34 PM 75.9 °F 60.3 °F 58% 30.05 in 10.0 mi SW 8.1 mph - N/A   Clear
1:54 PM 76.6 °F 60.8 °F 58% 30.05 in 10.0 mi SW 8.1 mph - N/A   Clear
2:14 PM 76.1 °F 60.4 °F 58% 30.05 in 10.0 mi SW 9.2 mph - N/A   Clear
2:34 PM 77.4 °F 60.3 °F 55% 30.04 in 10.0 mi SSW 12.7 mph 16.1 mph N/A   Clear
2:54 PM 77.7 °F 60.4 °F 55% 30.05 in 10.0 mi SSW 8.1 mph - N/A   Clear
3:14 PM 77.0 °F 59.5 °F 55% 30.04 in 10.0 mi SW 10.4 mph 17.3 mph N/A   Clear
3:34 PM 77.2 °F 59.2 °F 54% 30.03 in 10.0 mi SSW 10.4 mph 17.3 mph N/A   Clear
3:54 PM 76.8 °F 59.2 °F 54% 30.04 in 10.0 mi SSW 9.2 mph 17.3 mph N/A   Clear
4:14 PM 76.8 °F 58.6 °F 53% 30.03 in 10.0 mi SSW 12.7 mph 18.4 mph N/A   Clear
4:34 PM 77.0 °F 58.8 °F 53% 30.03 in 10.0 mi South 10.4 mph 17.3 mph N/A   Clear
4:55 PM 77.0 °F 58.5 °F 53% 30.03 in 10.0 mi SW 10.4 mph 18.4 mph N/A   Clear
5:15 PM 76.3 °F 59.0 °F 55% 30.03 in 10.0 mi SSW 9.2 mph 17.3 mph N/A   Clear
5:35 PM 76.5 °F 59.2 °F 55% 30.03 in 10.0 mi SSW 9.2 mph 16.1 mph N/A   Clear
5:55 PM 75.7 °F 59.2 °F 56% 30.03 in 10.0 mi SSW 10.4 mph - N/A   Clear
6:15 PM 75.2 °F 59.2 °F 57% 30.03 in 10.0 mi SSW 11.5 mph 17.3 mph N/A   Clear
6:35 PM 75.0 °F 59.5 °F 58% 30.02 in 10.0 mi SSW 10.4 mph - N/A   Clear
6:55 PM 74.7 °F 59.9 °F 60% 30.02 in 10.0 mi SSW 10.4 mph 16.1 mph N/A   Clear
7:15 PM 73.9 °F 60.1 °F 62% 30.02 in 10.0 mi SSW 8.1 mph - N/A   Clear
7:35 PM 73.4 °F 60.1 °F 63% 30.02 in 10.0 mi SSW 9.2 mph - N/A   Clear
7:55 PM 72.5 °F 60.3 °F 65% 30.01 in 10.0 mi SSW 6.9 mph 17.3 mph N/A   Clear
8:16 PM 72.1 °F 60.3 °F 66% 30.01 in 10.0 mi SSW 8.1 mph 16.1 mph N/A   Clear
8:36 PM 71.6 °F 60.3 °F 67% 30.01 in 10.0 mi SSW 10.4 mph 16.1 mph N/A   Clear
8:56 PM 71.1 °F 60.3 °F 69% 30.01 in 10.0 mi SSW 8.1 mph - N/A   Clear
9:16 PM 71.1 °F 59.9 °F 68% 30.02 in 10.0 mi SSW 8.1 mph 17.3 mph N/A   Clear
9:36 PM 70.9 °F 59.9 °F 68% 30.02 in 10.0 mi South 6.9 mph - N/A   Clear
9:56 PM 70.9 °F 59.4 °F 67% 30.02 in 10.0 mi SSW 9.2 mph - N/A   Clear
10:11 PM 70.9 °F 59.0 °F 66% 30.02 in 10.0 mi SSW 9.2 mph - N/A   Clear
10:31 PM 71.1 °F 59.2 °F 66% 30.02 in 10.0 mi South 5.8 mph - N/A   Clear
10:51 PM 70.9 °F 59.2 °F 66% 30.02 in 10.0 mi SSW 6.9 mph 17.3 mph N/A   Clear
11:12 PM 70.9 °F 59.9 °F 68% 30.02 in 10.0 mi SSW 5.8 mph - N/A   Clear
11:32 PM 70.7 °F 60.4 °F 70% 30.02 in 10.0 mi SSW 8.1 mph - N/A   Clear
11:52 PM 70.7 °F 60.8 °F 71% 30.02 in 10.0 mi SW 6.9 mph - N/A   Clear